BLUEWALKER 3 (53807 NORAD) Tracking and Keplerian Element Data

This shows tracking and keplerian element data for the satellite.

Feedback or suggestion? Click here.




ElementValue
Catalog53807
NameBLUEWALKER 3
Epoch Orbit1070
Epoch Day324.41357779
Epoch Year2022
RAAN306.6499
Inclination53.2013
Eccentricity0.0014112
Argument of Perigee132.1796
Mean Anonmoly228.0401
Mean Motion15.18601507
Decay Rate2.047E-05
L11 53807U 22111AL 22324.41357779 .00002047 00000+0 11295-3 0 9999
L22 53807 53.2013 306.6499 0014112 132.1796 228.0401 15.18601507 10703



Live tracking and technical data element details for BLUEWALKER 3 (NORAD 53807). BLUEWALKER 3 can be tracked NOW for your location showing map with azimuth and elevation plus other details from your city location.







IsCatalogInMostPopularTable: catalog: 53807, numindb: 5
Update: records affected: 1



GetName: 53807 BLUEWALKER 3

Hit Count: updated at: Mon, 28 Nov 2022 04:21:07 GMT